North Myrtle Beach, SC

8:14 PM EST on November 18, 2019 (GMT -0500)
Grand Strand

Weather History for KCRE - August, 2019

Change the Weather History Date:

Tuesday, August 27, 2019

  Actual Average Record
Temperature  
Mean Temperature 78 °F 78 °F  
Max Temperature 87 °F 86 °F 95 °F (1941)
Min Temperature 69 °F 71 °F 56 °F (1945)
Degree Days  
Heating Degree Days 0 0  
Month to date heating degree days 0 0  
Since 1 June heating degree days 0 0  
Since 1 July heating degree days 0 0  
Cooling Degree Days 13 13  
Month to date cooling degree days 429 380  
Year to date cooling degree days 1721 1425  
Since 1 June cooling degree days 1328 1213  
Growing Degree Days 26 (Base 50)    
Moisture  
Dew Point 68 °F    
Average Humidity 76    
Maximum Humidity 93    
Minimum Humidity 59    
Precipitation  
Precipitation 0.00 in 0.27 in 2.01 in (1998)
Month to date precipitation 8.55 6.44  
Year to date precipitation 31.56 34.38  
Sea Level Pressure  
Sea Level Pressure 29.98 in    
Wind  
Wind Speed 5 mph (North)    
Max Wind Speed 12 mph    
Max Gust Speed 16 mph    
Visibility 10 miles    
Events      
T = Trace of Precipitation, MM = Missing Value Source: NWS Daily Summary

Daily Weather History Graph

Daily Weather History Graph

Search for Another Location

Airport or City:

Astronomy

Aug. 27, 2019 Rise Set
Actual Time 6:45 AM EDT 7:47 PM EDT
Civil Twilight 6:19 AM EDT 8:12 PM EDT
Nautical Twilight 5:48 AM EDT 8:43 PM EDT
Astronomical Twilight 5:17 AM EDT 9:14 PM EDT
Moon 3:17 AM EDT (8/27) 5:57 PM EDT (8/27)
Length of Visible Light 13h 53m
Length of Day
13h 02m
Waning Crescent, 11% of the Moon is Illuminated
Aug 27
Waning Crescent
Aug 30
New
Sep 5
First Quarter
Sep 14
Full
Sep 21
Last Quarter

Hourly Weather History & Observations

Time (EDT) Temp. Heat Index Dew Point Humidity Pressure Visibility Wind Dir Wind Speed Gust Speed Precip Events Conditions
12:53 AM 71.1 °F - 66.9 °F 87% 30.04 in 10.0 mi North 6.9 mph - N/A   Clear
1:53 AM 70.0 °F - 66.9 °F 90% 30.02 in 10.0 mi NNE 6.9 mph - N/A   Clear
2:53 AM 70.0 °F - 66.9 °F 90% 30.00 in 10.0 mi NNE 5.8 mph - N/A   Clear
3:53 AM 69.1 °F - 66.9 °F 93% 29.99 in 10.0 mi NNE 5.8 mph - N/A   Clear
4:39 AM 69.1 °F - 66.9 °F 93% 29.96 in 10.0 mi NNE 5.8 mph - N/A   Scattered Clouds
4:50 AM 69.8 °F - 66.2 °F 88% 29.96 in 10.0 mi NNE 6.9 mph - N/A   Mostly Cloudy
4:53 AM 69.1 °F - 66.9 °F 93% 29.96 in 10.0 mi NNE 6.9 mph - N/A   Mostly Cloudy
5:00 AM 69.1 °F - 66.9 °F 93% 29.95 in 10.0 mi NNE 6.9 mph - N/A   Overcast
6:53 AM 70.0 °F - 66.9 °F 90% 29.99 in 10.0 mi North 5.8 mph - N/A   Overcast
7:53 AM 70.0 °F - 66.9 °F 90% 30.02 in 10.0 mi North 6.9 mph - N/A   Overcast
8:53 AM 71.1 °F - 66.9 °F 87% 30.03 in 10.0 mi NNW 6.9 mph - N/A   Overcast
9:53 AM 72.0 °F - 66.9 °F 84% 30.03 in 10.0 mi NE 8.1 mph - N/A   Overcast
10:53 AM 73.9 °F - 66.9 °F 79% 30.04 in 10.0 mi NNW 5.8 mph - N/A   Overcast
11:53 AM 78.1 °F - 68.0 °F 71% 30.02 in 10.0 mi Variable 6.9 mph - N/A   Overcast
12:01 PM 75.9 °F - 66.9 °F 74% 30.02 in 10.0 mi NW 4.6 mph - N/A   Mostly Cloudy
12:16 PM 79.0 °F - 68.0 °F 69% 30.01 in 10.0 mi North - - N/A   Scattered Clouds
12:53 PM 79.0 °F - 68.0 °F 69% 30.00 in 10.0 mi Variable 3.5 mph - N/A   Partly Cloudy
1:53 PM 82.9 °F 85.8 °F 68.0 °F 60% 29.98 in 10.0 mi NNE 6.9 mph - N/A   Partly Cloudy
2:53 PM 84.0 °F 87.0 °F 68.0 °F 58% 29.95 in 10.0 mi Variable 5.8 mph - N/A   Scattered Clouds
3:53 PM 84.9 °F 88.2 °F 68.0 °F 57% 29.94 in 10.0 mi NW 5.8 mph - N/A   Mostly Cloudy
4:53 PM 84.0 °F 87.8 °F 69.1 °F 61% 29.92 in 10.0 mi Variable 4.6 mph - N/A   Mostly Cloudy
5:53 PM 84.9 °F 89.4 °F 70.0 °F 61% 29.92 in 10.0 mi North 3.5 mph - N/A   Mostly Cloudy
6:53 PM 82.9 °F 86.5 °F 69.1 °F 63% 29.93 in 10.0 mi North 5.8 mph - N/A   Clear
7:53 PM 79.0 °F - 71.1 °F 77% 29.93 in 10.0 mi Calm Calm - N/A   Clear
8:53 PM 75.9 °F - 71.1 °F 85% 29.94 in 10.0 mi Calm Calm - N/A   Clear
9:53 PM 75.0 °F - 71.1 °F 87% 29.95 in 10.0 mi Calm Calm - N/A   Clear
10:53 PM 75.0 °F - 71.1 °F 87% 29.96 in 10.0 mi Calm Calm - N/A   Clear
11:53 PM 73.9 °F - 71.1 °F 91% 29.95 in 10.0 mi Calm Calm - N/A   Clear